CAPE
10 17 16 11 17 27 41 53 45 46 12 1 34 44 304 516 433 182 0 0 1 0 0 0 0 0 0 0 0 0 0 2
13 20 26 5 3 27 36 38 39 0 0 23 41 38 358 487 260 99 0 0 0 0 0 0 0 0 0 0 0 0 0 2
11 24 19 3 4 9 13 3 0 0 0 0 1 0 9 62 111 43 0 0 0 0 0 0 0 0 0 0 0 0 5 10
10 21 2 0 0 2 3 0 0 0 0 0 3 6 1 0 4 17 0 0 0 0 0 0 1 0 0 0 0 0 2 9
17 7 0 0 0 0 0 0 0 0 0 0 0 0 0 0 0 0 0 0 0 0 0 0 0 0 0 0 0 0 3 7
12 0 0 0 0 0 0 0 0 0 0 0 0 0 0 0 0 0 0 0 0 0 0 0 0 0 0 0 0 0 0 8
1 0 0 0 0 0 0 0 0 0 0 0 0 0 0 0 0 0 0 0 0 0 0 0 0 0 0 0 0 0 0 3
0 0 0 0 0 0 0 0 0 0 0 0 0 0 0 0 0 0 0 0 0 0 0 0 0 0 0 0 0 0 0 0
0 0 0 0 0 0 0 0 0 0 0 0 0 0 0 0 0 0 0 0 0 0 0 0 0 0 0 0 0 0 0 0
0 0 0 0 0 0 0 0 0 0 0 0 0 0 0 0 0 0 0 0 0 0 0 0 0 0 0 0 0 0 0 0
0 0 0 0 0 0 0 0 0 0 0 0 0 0 0 0 0 0 0 0 0 0 0 0 0 0 0 0 0 0 0 0
0 0 0 0 0 0 0 0 0 0 0 0 0 0 0 0 0 0 0 0 0 0 0 0 0 0 0 0 0 0 0 0
0 0 0 0 0 0 0 0 0 0 0 0 0 0 0 0 0 0 0 0 0 0 0 0 0 0 0 0 0 0 0 0
0 0 0 0 0 0 0 0 0 0 0 0 0 0 0 0 0 0 0 0 0 0 0 0 0 0 0 0 0 0 0 0
0 0 0 0 0 0 0 0 0 0 0 0 0 0 0 0 0 0 0 0 0 0 0 0 0 0 0 0 0 0 0 0
0 0 0 0 0 0 0 0 0 0 0 0 0 0 0 0 0 0 0 0 0 0 0 0 0 0 0 0 0 0 0 0
61 0 0 0 0 0 0 0 0 0 0 0 0 0 0 0 0 0 0 0 0 0 0 0 0 0 0 0 0 0 0 0
59 1 0 0 0 0 0 0 0 0 0 0 0 0 2 1 0 0 0 0 0 0 0 0 0 0 0 0 0 0 0 0
4 0 0 0 0 0 0 0 0 0 0 0 0 0 0 0 0 0 0 0 0 0 0 0 0 0 0 0 0 0 0 0
0 0 0 0 0 0 0 0 0 0 0 0 0 0 0 0 0 0 0 0 0 0 0 0 0 0 0 0 0 0 0 0
CIN
-0 -0 -0 -0 -0 -0 -2 -1 -0 -0 -0 -0 -0 -23 -0 -0 -0 -5 -0 -0 -0 -0 -0 -0 -0 -0 -0 -0 -0 -0 -0 -0
-0 -0 -0 -0 -0 -1 -2 -2 -0 -0 -0 -5 -5 -11 -0 -0 -0 -16 -0 -0 -0 -0 -0 -0 -0 -0 -0 -0 -0 -0 -0 -0
-0 -0 -0 -0 -0 -0 -0 -0 -0 -0 -0 -0 -6 -0 -0 -0 -20 -13 -0 -0 -0 -0 -0 -0 -0 -0 -0 -0 -0 -0 -0 -0
-0 -0 -0 -0 -0 -0 -0 -0 -0 -0 -0 -0 -0 -0 -0 -0 -0 -9 -0 -0 -0 -0 -0 -0 -7 -0 -0 -0 -0 -0 -0 -0
-0 -0 -0 -0 -0 -0 -0 -0 -0 -0 -0 -0 -0 -0 -0 -0 -0 -0 -0 -0 -0 -0 -0 -0 -0 -0 -0 -0 -0 -0 -0 -0
-0 -0 -0 -0 -0 -0 -0 -0 -0 -0 -0 -0 -0 -0 -0 -0 -0 -0 -0 -0 -0 -0 -0 -0 -0 -0 -0 -0 -0 -0 -0 -0
-0 -0 -0 -0 -0 -0 -0 -0 -0 -0 -0 -0 -0 -0 -0 -0 -0 -0 -0 -0 -0 -0 -0 -0 -0 -0 -0 -0 -0 -0 -0 -0
-0 -0 -0 -0 -0 -0 -0 -0 -0 -0 -0 -0 -0 -0 -0 -0 -0 -0 -0 -0 -0 -0 -0 -0 -0 -0 -0 -0 -0 -0 -0 -0
-0 -0 -0 -0 -0 -0 -0 -0 -0 -0 -0 -0 -0 -0 -0 -0 -0 -0 -0 -0 -0 -0 -0 -0 -0 -0 -0 -0 -0 -0 -0 -0
-0 -0 -0 -0 -0 -0 -0 -0 -0 -0 -0 -0 -0 -0 -0 -0 -0 -0 -0 -0 -0 -0 -0 -0 -0 -0 -0 -0 -0 -0 -0 -0
-0 -0 -0 -0 -0 -0 -0 -0 -0 -0 -0 -0 -0 -0 -0 -0 -0 -0 -0 -0 -0 -0 -0 -0 -0 -0 -0 -0 -0 -0 -0 -0
-0 -0 -0 -0 -0 -0 -0 -0 -0 -0 -0 -0 -0 -0 -0 -0 -0 -0 -0 -0 -0 -0 -0 -0 -0 -0 -0 -0 -0 -0 -0 -0
-0 -0 -0 -0 -0 -0 -0 -0 -0 -0 -0 -0 -0 -0 -0 -0 -0 -0 -0 -0 -0 -0 -0 -0 -0 -0 -0 -0 -0 -0 -0 -0
-0 -0 -0 -0 -0 -0 -0 -0 -0 -0 -0 -0 -0 -0 -0 -0 -0 -0 -0 -0 -0 -0 -0 -0 -0 -0 -0 -0 -0 -0 -0 -0
-0 -0 -0 -0 -0 -0 -0 -0 -0 -0 -0 -0 -0 -0 -0 -0 -0 -0 -0 -0 -0 -0 -0 -0 -0 -0 -0 -0 -0 -0 -0 -0
-0 -0 -0 -0 -0 -0 -0 -0 -0 -0 -0 -0 -0 -0 -0 -0 -0 -0 -0 -0 -0 -0 -0 -0 -0 -0 -0 -0 -0 -0 -0 -0
-157 -0 -0 -0 -0 -0 -0 -0 -0 -0 -0 -0 -0 -0 -0 -0 -0 -0 -0 -0 -0 -0 -0 -0 -0 -0 -0 -0 -0 -0 -0 -0
-225 -63 -0 -0 -0 -0 -0 -0 -0 -0 -0 -0 -0 -0 -0 -0 -0 -0 -0 -0 -0 -0 -0 -0 -0 -0 -0 -0 -0 -0 -0 -0
-136 -0 -0 -0 -0 -0 -0 -0 -0 -0 -0 -0 -0 -0 -0 -0 -0 -0 -0 -0 -0 -0 -0 -0 -0 -0 -0 -0 -0 -0 -0 -0
-0 -0 -0 -0 -0 -0 -0 -0 -0 -0 -0 -0 -0 -0 -0 -0 -0 -0 -0 -0 -0 -0 -0 -0 -0 -0 -0 -0 -0 -0 -0 -0
Wind_Speed
10 12 14 13 11 10 11 13 14 13 13 10 9 12 12 17 18 17 18 17 17 17 17 17 18 18 17 12 9 8 14 12
9 11 10 10 11 11 12 14 13 14 13 12 14 14 14 17 16 15 17 16 16 16 17 17 17 16 13 6 4 7 13 13
8 9 9 10 11 11 12 14 14 15 13 9 13 11 14 13 16 15 16 15 15 15 15 16 16 14 9 3 5 8 11 10
9 9 10 9 9 11 10 13 11 10 11 10 8 9 11 13 13 14 15 14 14 13 12 11 10 7 6 5 7 8 9 10
11 10 10 10 9 8 6 6 7 7 10 9 10 9 9 9 9 8 8 10 8 9 9 3 6 4 6 6 6 7 7 9
12 11 10 9 8 7 7 7 8 7 8 10 8 6 6 6 5 6 5 4 5 3 4 5 6 6 6 6 6 6 5 7
13 13 12 11 10 8 7 8 8 9 9 7 7 7 6 6 6 4 5 4 4 4 4 4 5 6 5 6 7 7 7 6
14 14 12 12 10 11 8 8 9 9 7 7 7 6 6 6 6 6 5 4 4 3 4 4 3 5 5 5 5 6 7 6
15 15 14 13 12 10 8 9 9 8 7 8 8 8 7 6 5 5 5 5 5 5 4 4 4 4 6 5 5 5 6 6
17 14 15 15 12 9 8 10 9 7 7 7 10 9 8 6 5 5 5 4 4 4 3 4 4 4 4 4 4 4 6 5
17 16 16 15 12 10 8 10 8 7 7 7 11 10 9 6 5 6 6 5 4 4 3 3 4 5 5 4 3 4 3 4
17 14 16 15 11 9 8 8 8 7 7 8 11 9 10 7 6 7 6 5 5 4 5 4 4 4 5 5 3 3 2 2
18 17 17 13 11 10 9 9 9 8 8 9 11 10 10 8 6 7 5 5 6 6 6 6 5 5 4 4 4 3 0 1
19 18 19 15 12 10 8 9 8 8 8 9 10 11 11 9 8 7 6 6 7 7 6 4 4 4 3 2 3 6 4 0
19 19 20 18 16 11 8 7 7 8 8 9 10 12 12 10 9 7 7 6 6 7 6 5 2 2 4 4 3 2 1 4
20 20 20 19 19 15 16 12 11 9 10 9 9 12 11 10 9 9 8 6 5 6 5 4 4 2 3 2 4 5 3 3
19 20 20 20 20 18 15 14 11 10 9 11 11 11 11 11 10 9 8 6 5 5 5 5 3 1 1 2 2 3 4 4
19 21 21 21 20 21 20 19 15 11 12 11 10 9 9 11 11 10 9 7 7 6 5 5 2 1 2 2 3 4 2 4
18 21 22 22 22 21 21 19 18 16 15 12 13 10 11 13 13 11 9 9 9 8 7 7 6 4 4 3 1 1 3 3
20 21 21 22 22 21 19 19 13 13 16 12 11 11 12 13 13 12 11 10 9 8 6 6 6 5 6 3 3 2 2 3
Wind_Direction
137 130 120 104 101 98 94 93 92 92 90 90 101 96 97 107 106 107 106 104 103 98 93 91 89 86 78 64 42 16 69 60
142 145 132 128 130 101 97 95 98 98 98 95 98 94 102 107 110 104 107 106 102 100 98 95 93 90 85 84 119 71 60 67
148 135 132 131 128 118 115 111 106 110 116 127 162 121 122 135 88 107 106 105 104 104 103 105 100 88 75 345 329 52 67 64
150 146 140 145 127 142 131 143 142 125 132 131 119 116 96 101 102 105 108 108 106 107 117 150 194 119 127 199 60 62 70 72
157 146 153 153 133 146 144 139 138 131 135 132 122 128 137 127 136 139 135 160 137 149 172 101 64 68 68 72 82 66 72 75
157 156 154 155 150 159 146 143 145 146 132 139 139 139 144 144 129 121 141 106 117 119 99 96 105 93 89 88 62 60 64 97
162 158 163 158 170 141 155 144 163 142 156 148 151 147 139 143 132 123 104 115 102 89 114 122 121 117 114 99 86 80 66 74
163 166 166 166 164 156 155 166 141 167 156 147 160 154 152 136 137 126 119 100 83 77 71 109 95 108 104 93 82 83 69 61
167 167 167 174 166 162 165 161 168 167 160 161 159 157 162 146 130 138 120 105 119 118 109 103 109 102 105 118 115 99 91 80
172 171 172 176 169 174 171 159 175 174 170 165 169 164 163 167 149 133 127 130 114 95 96 98 96 107 109 109 106 106 100 90
174 175 175 176 171 176 174 165 188 181 173 167 171 170 170 171 152 133 160 136 127 128 109 98 106 103 103 103 98 105 119 89
175 175 176 180 171 179 178 178 188 184 184 173 171 171 172 175 155 148 160 144 143 131 119 98 97 105 108 103 101 107 113 96
178 179 178 181 183 186 184 189 187 192 191 172 181 174 175 178 167 165 170 158 131 144 136 134 123 135 138 130 118 132 133 36
182 185 181 188 188 192 190 199 188 194 191 181 191 182 179 183 179 179 177 144 155 164 170 164 133 180 309 306 206 167 168 84
190 187 183 189 188 186 186 177 198 193 188 189 192 191 187 193 185 182 177 185 179 179 188 206 164 168 267 314 263 341 157 142
194 190 186 188 190 185 192 192 192 196 193 192 189 197 193 192 185 177 183 193 179 185 190 215 245 166 161 263 292 316 273 198
196 194 191 189 190 196 195 207 200 189 190 193 199 194 198 193 186 183 181 192 181 175 172 209 197 226 221 182 248 245 244 282
195 198 196 193 194 201 200 202 204 196 191 189 193 192 193 198 191 187 181 173 169 174 169 166 184 142 150 195 250 284 242 251
196 201 201 197 198 201 203 205 208 198 195 196 190 193 196 193 193 188 182 179 171 169 172 157 164 161 169 154 162 280 304 289
197 200 204 198 199 205 203 206 204 205 200 199 200 198 199 193 194 189 178 172 172 171 169 164 155 156 158 162 154 151 252 286